EN

Hourly Weather Aloha

Today, 28 January, Thursday

Time Temperature Precipitation Wind Pressure Humidity
00:00 +5°C° 0.1 mm 2 mps 746 mmHg 91%
01:00 +4°C° 0.1 mm 2 mps 746 mmHg 92%
02:00 +5°C° 0.1 mm 1 mps 746 mmHg 93%
03:00 +5°C° 0.1 mm 1 mps 746 mmHg 93%
04:00 +5°C° 0.1 mm 1 mps 747 mmHg 93%
05:00 +5°C° 0.2 mm 1 mps 747 mmHg 94%
06:00 +6°C° 0.2 mm 1 mps 747 mmHg 94%
07:00 +5°C° 0.2 mm 0 mps 748 mmHg 95%
08:00 +5°C° 0.3 mm 0 mps 748 mmHg 94%
09:00 +5°C° 0.3 mm 0 mps 748 mmHg 94%
10:00 +5°C° 0.3 mm 0 mps 749 mmHg 93%
11:00 +6°C° 0.1 mm 0 mps 749 mmHg 89%
12:00 +7°C° 0.1 mm 0 mps 749 mmHg 86%
13:00 +9°C° 0.1 mm 1 mps 749 mmHg 82%
14:00 +8°C° 0 mm 0 mps 749 mmHg 82%
15:00 +8°C° 0 mm 0 mps 749 mmHg 81%
16:00 +8°C° 0 mm 0 mps 750 mmHg 81%
17:00 +7°C° 0 mm 0 mps 750 mmHg 82%
18:00 +6°C° 0 mm 0 mps 751 mmHg 84%
19:00 +5°C° 0 mm 0 mps 751 mmHg 86%
20:00 +5°C° 0 mm 0 mps 751 mmHg 88%
21:00 +4°C° 0 mm 0 mps 752 mmHg 89%
22:00 +4°C° 0 mm 1 mps 752 mmHg 91%
23:00 +4°C° 0 mm 1 mps 752 mmHg 91%

Tomorrow, 29 January, Friday

Time Temperature Precipitation Wind Pressure Humidity
00:00 +3°C° 0 mm 0 mps 752 mmHg 92%
01:00 +2°C° 0 mm 0 mps 752 mmHg 92%
02:00 +2°C° 0 mm 0 mps 752 mmHg 93%
03:00 +2°C° 0 mm 0 mps 752 mmHg 93%
04:00 +1°C° 0 mm 0 mps 752 mmHg 93%
05:00 +1°C° 0 mm 0 mps 752 mmHg 93%
06:00 +1°C° 0 mm 0 mps 752 mmHg 94%
07:00 +1°C° 0 mm 0 mps 752 mmHg 94%
08:00 +2°C° 0 mm 0 mps 752 mmHg 91%
09:00 +4°C° 0 mm 1 mps 752 mmHg 88%
10:00 +5°C° 0 mm 1 mps 752 mmHg 86%
11:00 +6°C° 0 mm 1 mps 752 mmHg 85%
12:00 +6°C° 0 mm 1 mps 751 mmHg 84%
13:00 +7°C° 0 mm 1 mps 751 mmHg 84%
14:00 +7°C° 0 mm 1 mps 751 mmHg 84%
15:00 +7°C° 0 mm 1 mps 751 mmHg 84%
16:00 +7°C° 0 mm 1 mps 751 mmHg 85%
17:00 +6°C° 0.1 mm 1 mps 751 mmHg 87%
18:00 +6°C° 0.1 mm 1 mps 752 mmHg 90%
19:00 +5°C° 0.1 mm 1 mps 752 mmHg 92%
20:00 +5°C° 0.2 mm 2 mps 752 mmHg 90%
21:00 +5°C° 0.2 mm 2 mps 752 mmHg 88%
22:00 +4°C° 0.2 mm 3 mps 752 mmHg 86%
23:00 +4°C° 0.4 mm 3 mps 752 mmHg 87%

Day after tomorrow, 30 January, Saturday

Time Temperature Precipitation Wind Pressure Humidity
00:00 +4°C° 0.4 mm 3 mps 752 mmHg 88%
01:00 +4°C° 0.4 mm 3 mps 752 mmHg 89%
02:00 +4°C° 0.9 mm 3 mps 753 mmHg 90%
03:00 +4°C° 0.9 mm 4 mps 753 mmHg 91%
04:00 +4°C° 0.9 mm 4 mps 753 mmHg 92%
05:00 +4°C° 0.3 mm 3 mps 753 mmHg 92%
06:00 +4°C° 0.3 mm 3 mps 753 mmHg 92%
07:00 +4°C° 0.3 mm 3 mps 754 mmHg 92%
08:00 +6°C° 0.1 mm 2 mps 754 mmHg 91%
09:00 +6°C° 0.1 mm 2 mps 755 mmHg 90%
10:00 +6°C° 0.1 mm 2 mps 755 mmHg 89%
11:00 +7°C° 0 mm 2 mps 755 mmHg 88%
12:00 +7°C° 0 mm 2 mps 755 mmHg 87%
13:00 +8°C° 0 mm 1 mps 755 mmHg 86%
14:00 +8°C° 0.4 mm 1 mps 754 mmHg 87%
15:00 +8°C° 0.4 mm 1 mps 754 mmHg 88%
16:00 +9°C° 0.4 mm 1 mps 754 mmHg 90%
17:00 +8°C° 0.7 mm 1 mps 754 mmHg 90%
18:00 +7°C° 0.7 mm 2 mps 754 mmHg 90%
19:00 +7°C° 0.7 mm 2 mps 754 mmHg 91%
20:00 +7°C° 1.3 mm 2 mps 754 mmHg 92%
21:00 +7°C° 1.3 mm 2 mps 754 mmHg 93%
22:00 +7°C° 1.3 mm 2 mps 754 mmHg 95%
23:00 +7°C° 0.4 mm 2 mps 754 mmHg 93%

31 January, Sunday

Time Temperature Precipitation Wind Pressure Humidity
00:00 +7°C° 0.4 mm 2 mps 754 mmHg 91%
01:00 +7°C° 0.4 mm 3 mps 754 mmHg 89%
02:00 +7°C° 0.7 mm 2 mps 754 mmHg 88%
03:00 +7°C° 0.7 mm 2 mps 754 mmHg 88%
04:00 +7°C° 0.7 mm 2 mps 754 mmHg 88%
05:00 +7°C° 0.4 mm 2 mps 754 mmHg 90%
06:00 +8°C° 0.4 mm 1 mps 754 mmHg 92%
07:00 +8°C° 0.4 mm 1 mps 754 mmHg 94%
08:00 +8°C° 0.7 mm 1 mps 754 mmHg 94%
09:00 +7°C° 0.7 mm 0 mps 754 mmHg 95%
10:00 +7°C° 0.7 mm 0 mps 754 mmHg 95%
11:00 +7°C° 1.3 mm 0 mps 753 mmHg 94%
12:00 +8°C° 1.3 mm 1 mps 753 mmHg 93%
13:00 +9°C° 1.3 mm 1 mps 752 mmHg 92%
14:00 +9°C° 0.5 mm 1 mps 752 mmHg 92%
15:00 +8°C° 0.5 mm 2 mps 752 mmHg 92%
16:00 +8°C° 0.5 mm 2 mps 751 mmHg 92%
17:00 +8°C° 0.5 mm 2 mps 751 mmHg 92%
18:00 +8°C° 0.5 mm 2 mps 751 mmHg 93%
19:00 +8°C° 0.5 mm 3 mps 751 mmHg 93%
20:00 +8°C° 1.2 mm 2 mps 752 mmHg 94%
21:00 +8°C° 1.2 mm 2 mps 752 mmHg 94%
22:00 +9°C° 1.2 mm 1 mps 752 mmHg 94%
23:00 +8°C° 0.4 mm 1 mps 752 mmHg 94%

1 February, Monday

Time Temperature Precipitation Wind Pressure Humidity
00:00 +7°C° 0.4 mm 2 mps 752 mmHg 93%
01:00 +7°C° 0.4 mm 2 mps 752 mmHg 93%
02:00 +8°C° 1 mm 1 mps 752 mmHg 94%
03:00 +8°C° 1 mm 1 mps 752 mmHg 95%
04:00 +8°C° 1 mm 1 mps 752 mmHg 96%
05:00 +8°C° 0.3 mm 1 mps 752 mmHg 95%
06:00 +7°C° 0.3 mm 1 mps 752 mmHg 94%
07:00 +6°C° 0.3 mm 2 mps 752 mmHg 93%
08:00 +7°C° 0 mm 2 mps 753 mmHg 91%
09:00 +7°C° 0 mm 2 mps 753 mmHg 88%
10:00 +8°C° 0 mm 2 mps 754 mmHg 85%
11:00 +8°C° 0.2 mm 2 mps 753 mmHg 82%
12:00 +9°C° 0.2 mm 2 mps 753 mmHg 78%
13:00 +10°C° 0.2 mm 2 mps 752 mmHg 75%
14:00 +9°C° 0.5 mm 2 mps 752 mmHg 76%
15:00 +9°C° 0.5 mm 2 mps 752 mmHg 78%
16:00 +8°C° 0.5 mm 2 mps 752 mmHg 79%
17:00 +8°C° 0.2 mm 2 mps 752 mmHg 81%
18:00 +8°C° 0.2 mm 1 mps 752 mmHg 84%
19:00 +7°C° 0.2 mm 1 mps 752 mmHg 86%
20:00 +7°C° 0.1 mm 1 mps 753 mmHg 87%
21:00 +6°C° 0.1 mm 1 mps 753 mmHg 88%
22:00 +6°C° 0.1 mm 1 mps 753 mmHg 89%
23:00 +6°C° 0 mm 1 mps 753 mmHg 90%

2 February, Tuesday

Time Temperature Precipitation Wind Pressure Humidity
00:00 +5°C° 0 mm 1 mps 754 mmHg 91%
01:00 +5°C° 0 mm 1 mps 754 mmHg 91%
02:00 +4°C° 0 mm 1 mps 754 mmHg 91%
03:00 +4°C° 0 mm 1 mps 754 mmHg 91%
04:00 +3°C° 0 mm 0 mps 755 mmHg 91%
05:00 +3°C° 0 mm 0 mps 755 mmHg 91%
06:00 +2°C° 0 mm 0 mps 756 mmHg 91%
07:00 +2°C° 0 mm 0 mps 756 mmHg 90%
08:00 +3°C° 0 mm 0 mps 757 mmHg 87%
09:00 +6°C° 0 mm 1 mps 757 mmHg 83%
10:00 +7°C° 0 mm 1 mps 758 mmHg 79%
11:00 +8°C° 0.1 mm 1 mps 758 mmHg 74%
12:00 +7°C° 0.1 mm 2 mps 758 mmHg 68%
13:00 +8°C° 0.1 mm 2 mps 758 mmHg 63%
14:00 +8°C° 0.2 mm 2 mps 759 mmHg 65%
15:00 +8°C° 0.2 mm 2 mps 759 mmHg 67%
16:00 +8°C° 0.2 mm 2 mps 759 mmHg 68%
17:00 +6°C° 0 mm 2 mps 760 mmHg 74%
18:00 +6°C° 0 mm 1 mps 761 mmHg 79%
19:00 +5°C° 0 mm 1 mps 762 mmHg 84%
20:00 +4°C° 0 mm 1 mps 762 mmHg 85%
21:00 +4°C° 0 mm 1 mps 763 mmHg 87%
22:00 +3°C° 0 mm 1 mps 763 mmHg 88%
23:00 +3°C° 0 mm 1 mps 764 mmHg 88%
Show more